Regional Weather Roundup
Issued by NWS

Home | Current Version | Previous Version | Graphics & Text | Print | Product List | Glossary On
Versions: 1 2 3 4 5 6 7 8 9 10 11 12 13 14 15 16 17 18 19 20 21 22 23 24 25 26 27
000
ASUS45 KCYS 220410
RWRWY

WYOMING REGIONAL WEATHER ROUNDUP
NATIONAL WEATHER SERVICE CHEYENNE WY
1000 PM MDT SAT APR 21 2018

NOTE:  "FAIR" INDICATES FEW OR NO CLOUDS BELOW 12,000 FEET
WITH NO SIGNIFICANT WEATHER AND/OR OBSTRUCTIONS TO VISIBILITY.

WYZ001-220500-
YELLOWSTONE NATIONAL PARK

CITY           SKY/WX    TMP DP  RH WIND       PRES   REMARKS
LK YELLOWSTONE   N/A     30  25  81 NW3       30.24R
W YELLOWSTONE  NOT AVBL

$$
WYZ002>013-054>058-071-098>099-220500-
NORTHERN WYOMING

CITY           SKY/WX    TMP DP  RH WIND       PRES   REMARKS
JACKSON        NOT AVBL
CODY           FAIR      60  25  26 W14G20    30.07R
GREYBULL       FAIR      55  37  50 E6        30.00
WORLAND        FAIR      50  33  52 S12       30.02R
SHERIDAN       FAIR      46  37  71 S7        30.01R
BUFFALO        FAIR      51  36  56 S9        30.08R
GILLETTE       FAIR      46  37  71 S15       30.07R
HULETT         FAIR      46  36  66 S10G17    30.10S
NEWCASTLE      FAIR      41  32  70 E16G22    30.15S

$$
WYZ014>020-022>026-101>103-220500-
CENTRAL WYOMING

CITY           SKY/WX    TMP DP  RH WIND       PRES   REMARKS
BIG PINEY      FAIR      37  23  56 NW10      30.21R WCI  30
PINEDALE       FAIR      37  27  65 W12       30.22R WCI  30
DUBOIS         FAIR      41  23  48 W6        30.18S
LANDER         FAIR      52  28  39 W12       30.08R
RIVERTON       FAIR      56  22  26 SW3       30.09R
CASPER         FAIR      45  38  76 E13       30.08R
DOUGLAS        FAIR      38  36  92 SE10      30.12R WCI  31

$$
WYZ021-027>030-104>119-220500-
SOUTHERN WYOMING

CITY           SKY/WX    TMP DP  RH WIND       PRES   REMARKS
EVANSTON       FAIR      44  26  49 SW7       30.25R
KEMMERER       FAIR      45  27  49 W10       30.23R
FORT BRIDGER   FAIR      47  26  43 W10       30.25R
ROCK SPRINGS   FAIR      48  21  34 W9        30.17R
DIXON          FAIR      43  33  67 NE5       30.21R
RAWLINS          N/A    N/A N/A N/A MISG      30.15R
SARATOGA       FAIR      41  34  75 SW8G17    30.16R
LARAMIE        FOG       31  31 100 S8        30.15R VSB 1/2 WCI  23
CHEYENNE       MOCLDY    35  34  96 S8        30.17R WCI  29
TORRINGTON     FAIR      38  36  92 SE12      30.16R WCI  30
PINE BLUFFS    CLOUDY    36  36 100 MISG      30.19S

$$




USA.gov is the U.S. government's official web portal to all federal, state and local government web resources and services.